GW5351 Weather Reports


Display with metric or nautical units.
time (UTC)temp
F
wind
direction
speed
MPH
gust
MPH
rain 1hr
in
rain 24hr
in
rain mn
in
humidity
%
barometer
mb
20260831133916 78 222 0.0 0.0 0.00 0.00 0.00 99 1017.6
20260831133411 78 209 0.0 0.0 0.00 0.00 0.00 99 1017.7
20260831132906 77 222 0.0 0.0 0.00 0.00 0.00 99 1017.6
20260831132401 77 223 0.0 0.0 0.00 0.00 0.00 99 1017.6
20260831131901 76 215 0.0 0.0 0.00 0.00 0.00 99 1017.6
20260831131351 76 214 0.0 0.0 0.00 0.00 0.00 99 1017.4
20260831130846 76 214 0.0 0.0 0.00 0.00 0.00 99 1017.6
20260831130342 76 214 0.0 0.0 0.00 0.00 0.00 99 1017.4
20260831125841 75 214 0.0 0.0 0.00 0.00 0.00 99 1017.5
20260831125336 75 214 0.0 0.0 0.00 0.00 0.00 99 1017.4
20260831124836 75 214 0.0 0.0 0.00 0.00 0.00 99 1017.5
20260831124333 74 214 0.0 0.0 0.00 0.00 0.00 99 1017.3
20260831123833 74 214 0.0 0.0 0.00 0.00 0.00 99 1017.1
20260831123332 74 214 0.0 0.0 0.00 0.00 0.00 99 1017.3
20260831122827 74 215 0.0 0.0 0.00 0.00 0.00 99 1017.2
20260831122323 73 215 0.0 0.0 0.00 0.00 0.00 99 1016.8
20260831121822 74 215 0.0 0.0 0.00 0.00 0.00 99 1016.9
20260831121318 74 215 0.0 0.0 0.00 0.00 0.00 99 1016.7
20260831120813 74 215 0.0 0.0 0.00 0.00 0.00 99 1016.7
20260831120308 74 215 0.0 0.0 0.00 0.00 0.00 99 1016.7
20260831115803 74 215 0.0 0.0 0.00 0.00 0.00 99 1016.5
20260831115259 74 215 0.0 0.0 0.00 0.00 0.00 99 1016.7
20260831114758 73 215 0.0 0.0 0.00 0.00 0.00 99 1016.6
20260831114252 73 215 0.0 0.0 0.00 0.00 0.00 99 1016.6
20260831113749 73 215 0.0 0.0 0.00 0.00 0.00 99 1016.5
20260831113248 74 215 0.0 0.0 0.00 0.00 0.00 99 1016.4
20260831112748 73 215 0.0 0.0 0.00 0.00 0.00 99 1016.5
20260831112243 74 215 0.0 0.0 0.00 0.00 0.00 99 1016.5
20260831111738 74 215 0.0 0.0 0.00 0.00 0.00 99 1016.6
20260831111235 74 215 0.0 0.0 0.00 0.00 0.00 99 1016.4
20260831110730 74 215 0.0 0.0 0.00 0.00 0.00 99 1016.6
20260831110225 74 215 0.0 0.0 0.00 0.00 0.00 99 1016.4
20260831105723 74 215 0.0 0.0 0.00 0.00 0.00 99 1016.5
20260831105220 74 215 0.0 0.0 0.00 0.00 0.00 99 1016.5
20260831104714 74 215 0.0 0.0 0.00 0.00 0.00 99 1016.5
20260831104211 74 215 0.0 0.0 0.00 0.00 0.00 99 1016.5
20260831103710 75 215 0.0 0.0 0.00 0.00 0.00 99 1016.3
20260831103206 75 215 0.0 0.0 0.00 0.00 0.00 99 1016.3
20260831102701 75 215 0.0 0.0 0.00 0.00 0.00 99 1016.3
20260831102201 75 215 0.0 0.0 0.00 0.00 0.00 99 1016.6
20260831101656 75 215 0.0 0.0 0.00 0.00 0.00 99 1016.4
20260831101152 75 215 0.0 0.0 0.00 0.00 0.00 98 1016.5
20260831100648 75 215 0.0 0.0 0.00 0.00 0.00 98 1016.5
20260831100144 75 215 0.0 0.0 0.00 0.00 0.00 98 1016.5
20260831095641 74 215 0.0 0.0 0.00 0.00 0.00 98 1016.7
20260831095137 75 215 0.0 0.0 0.00 0.00 0.00 98 1016.5
20260831094632 74 215 0.0 0.0 0.00 0.00 0.00 98 1016.6
20260831094128 75 215 0.0 0.0 0.00 0.00 0.00 98 1016.4
20260831093623 75 215 0.0 0.0 0.00 0.00 0.00 98 1016.6
20260831093119 75 215 0.0 0.0 0.00 0.00 0.00 98 1016.4
20260831092615 75 215 0.0 0.0 0.00 0.00 0.00 98 1016.4
20260831092111 75 215 0.0 0.0 0.00 0.00 0.00 98 1016.5
20260831091610 75 215 0.0 0.0 0.00 0.00 0.00 97 1016.5
20260831091106 75 215 0.0 0.0 0.00 0.00 0.00 97 1016.3
20260831090601 75 215 0.0 0.0 0.00 0.00 0.00 97 1016.4
20260831090057 75 215 0.0 0.0 0.00 0.00 0.00 97 1016.4
20260831085552 75 215 0.0 0.0 0.00 0.00 0.00 97 1016.6
20260831085048 76 215 0.0 0.0 0.00 0.00 0.00 97 1016.3
20260831084543 75 215 0.0 0.0 0.00 0.00 0.00 97 1016.3
20260831084040 76 215 0.0 0.0 0.00 0.00 0.00 97 1016.4
20260831083535 76 214 0.0 0.0 0.00 0.00 0.00 97 1016.3
20260831083030 76 214 0.0 0.0 0.00 0.00 0.00 96 1016.3
20260831082529 76 214 0.0 0.0 0.00 0.00 0.00 96 1016.6
20260831082025 76 214 0.0 0.0 0.00 0.00 0.00 96 1016.4
20260831081520 77 214 0.0 0.0 0.00 0.00 0.00 96 1016.6
20260831081017 76 214 0.0 0.0 0.00 0.00 0.00 96 1016.7
20260831080516 76 214 0.0 0.0 0.00 0.00 0.00 95 1016.6
20260831080012 77 214 0.0 0.0 0.00 0.00 0.00 95 1016.4
20260831075507 77 214 0.0 0.0 0.00 0.00 0.00 95 1016.6
20260831075003 77 214 0.0 0.0 0.00 0.00 0.00 95 1016.8
20260831074502 77 214 0.0 0.0 0.00 0.00 0.00 95 1016.6
20260831073956 78 214 0.0 0.0 0.00 0.00 0.00 94 1016.6
20260831073456 77 214 0.0 0.0 0.00 0.00 0.00 94 1016.5
20260831072955 77 214 0.0 0.0 0.00 0.00 0.00 94 1016.4
20260831072451 77 214 0.0 0.0 0.00 0.00 0.00 94 1016.4
20260831071948 78 214 0.0 0.0 0.00 0.00 0.00 94 1016.5
20260831071446 78 214 0.0 0.0 0.00 0.00 0.00 93 1016.7
20260831070941 78 214 0.0 0.0 0.00 0.00 0.00 93 1016.7
20260831070441 78 214 0.0 0.0 0.00 0.00 0.00 92 1016.7
20260831065940 78 214 0.0 0.0 0.00 0.00 0.00 92 1016.6
20260831065438 79 214 0.0 0.0 0.00 0.00 0.00 91 1016.7
20260831064933 79 214 0.0 0.0 0.00 0.00 0.00 91 1016.6
20260831064428 79 214 0.0 0.0 0.00 0.00 0.00 91 1016.7
20260831063925 79 214 0.0 0.0 0.00 0.00 0.00 90 1016.7
20260831063420 79 214 0.0 0.0 0.00 0.00 0.00 89 1016.8
20260831062914 80 214 0.0 0.0 0.00 0.00 0.00 89 1016.8
20260831062410 80 214 0.0 0.0 0.00 0.00 0.00 88 1016.7
20260831061908 80 214 0.0 0.0 0.00 0.00 0.00 88 1016.8
20260831061407 80 214 0.0 0.0 0.00 0.00 0.00 87 1016.8
20260831060904 80 215 0.0 0.0 0.00 0.00 0.00 87 1016.8
20260831060403 80 229 1.0 1.0 0.00 0.00 0.00 87 1016.8
20260831055903 80 214 0.0 2.0 0.00 0.00 0.00 86 1016.8
20260831055358 80 208 0.0 0.0 0.00 0.00 0.00 86 1016.9
20260831054853 81 213 0.0 0.0 0.00 0.00 0.00 85 1016.7
20260831054348 81 214 0.0 1.0 0.00 0.00 0.00 85 1016.7
20260831053847 81 218 0.0 1.0 0.00 0.00 0.00 84 1016.8
20260831053346 81 228 0.0 0.0 0.00 0.00 0.00 84 1016.8
20260831052846 81 217 0.0 0.0 0.00 0.00 0.00 84 1016.8
20260831052346 81 217 0.0 0.0 0.00 0.00 0.00 84 1016.8
20260831051844 81 217 0.0 0.0 0.00 0.00 0.00 83 1016.7
20260831051343 81 217 0.0 0.0 0.00 0.00 0.00 83 1016.6
20260831050838 81 218 0.0 0.0 0.00 0.00 0.00 82 1016.6
20260831050337 82 217 0.0 0.0 0.00 0.00 0.00 82 1016.6
20260831045832 82 228 0.0 0.0 0.00 0.00 0.00 81 1016.7
20260831045331 82 209 0.0 0.0 0.00 0.00 0.00 81 1016.8
20260831044827 82 218 0.0 0.0 0.00 0.00 0.00 81 1016.6
20260831044321 82 228 0.0 0.0 0.00 0.00 0.00 80 1016.7
20260831043818 82 210 0.0 0.0 0.00 0.00 0.00 80 1016.7
20260831043317 82 196 0.0 0.0 0.00 0.00 0.00 79 1016.6
20260831042812 83 222 1.0 1.0 0.00 0.00 0.00 79 1016.6
20260831042311 83 193 0.0 1.0 0.00 0.00 0.00 78 1016.4
20260831041807 83 195 1.0 2.0 0.00 0.00 0.00 78 1016.3
20260831041306 83 208 0.0 1.0 0.00 0.00 0.00 77 1016.3
20260831040801 83 214 1.0 2.0 0.00 0.00 0.00 77 1016.4
20260831040300 83 216 0.0 1.0 0.00 0.00 0.00 76 1016.4
20260831035759 84 214 0.0 1.0 0.00 0.00 0.00 76 1016.2
20260831035258 84 214 0.0 1.0 0.00 0.00 0.00 75 1016.2
20260831034758 84 201 1.0 1.0 0.00 0.00 0.00 75 1016.1
20260831034254 84 216 0.0 2.0 0.00 0.00 0.00 74 1016.2
20260831033749 84 236 1.0 2.0 0.00 0.00 0.00 74 1015.9
20260831033248 84 214 0.0 2.0 0.00 0.00 0.00 73 1016.0
20260831032744 84 129 1.0 4.0 0.00 0.00 0.00 73 1015.9
20260831032239 84 160 2.0 4.0 0.00 0.00 0.00 73 1016.0
20260831031734 85 198 0.0 2.0 0.00 0.00 0.00 72 1015.8
20260831031228 85 161 1.0 2.0 0.00 0.00 0.00 72 1016.0
20260831030728 85 194 0.0 2.0 0.00 0.00 0.00 72 1015.8
20260831030226 85 184 2.0 3.0 0.00 0.00 0.00 71 1015.7
20260831025725 85 210 0.0 2.0 0.00 0.00 0.00 70 1015.6
20260831025220 85 149 1.0 2.0 0.00 0.00 0.00 70 1015.5
20260831024717 85 174 0.0 2.0 0.00 0.00 0.00 69 1015.5
20260831024215 86 214 1.0 1.0 0.00 0.00 0.00 68 1015.4
20260831023714 86 200 0.0 1.0 0.00 0.00 0.00 67 1015.2
20260831023213 86 186 1.0 2.0 0.00 0.00 0.00 66 1015.1
20260831022708 86 225 0.0 0.0 0.00 0.00 0.00 65 1015.1
20260831022202 86 212 0.0 0.0 0.00 0.00 0.00 65 1015.0
20260831021702 87 219 0.0 0.0 0.00 0.00 0.00 64 1014.9
20260831021157 87 215 0.0 0.0 0.00 0.00 0.00 63 1015.0
20260831020653 87 211 0.0 0.0 0.00 0.00 0.00 62 1015.0
20260831020147 88 211 0.0 2.0 0.00 0.00 0.00 61 1014.9
20260831015643 88 189 2.0 2.0 0.00 0.00 0.00 61 1014.9
20260831015142 88 222 1.0 3.0 0.00 0.00 0.00 60 1014.8
20260831014637 88 218 0.0 2.0 0.00 0.00 0.00 59 1014.7
20260831014133 89 213 0.0 1.0 0.00 0.00 0.00 57 1014.7
20260831013629 89 210 0.0 0.0 0.00 0.00 0.00 55 1014.7
20260831013129 89 210 0.0 1.0 0.00 0.00 0.00 55 1014.8
20260831012623 90 204 0.0 2.0 0.00 0.00 0.00 54 1014.7
20260831012119 90 201 0.0 1.0 0.00 0.00 0.00 53 1014.6
20260831011618 90 205 0.0 2.0 0.00 0.00 0.00 52 1014.4
20260831011114 91 209 0.0 0.0 0.00 0.00 0.00 52 1014.6
20260831010610 91 214 0.0 2.0 0.00 0.00 0.00 52 1014.4
20260831010105 91 216 0.0 2.0 0.00 0.00 0.00 51 1014.3
20260831005559 91 214 1.0 3.0 0.00 0.00 0.00 51 1014.5
20260831005054 92 189 1.0 3.0 0.00 0.00 0.00 51 1014.3
20260831004550 92 218 0.0 3.0 0.00 0.00 0.00 52 1014.5
20260831004046 92 3 1.0 4.0 0.00 0.00 0.00 51 1014.3
20260831003542 92 222 1.0 6.0 0.00 0.00 0.00 52 1014.3
20260831003037 93 205 2.0 2.0 0.00 0.00 0.00 52 1014.1
20260831002536 93 205 2.0 3.0 0.00 0.00 0.00 51 1014.1
20260831002031 93 212 1.0 4.0 0.00 0.00 0.00 50 1014.2
20260831001527 94 188 2.0 3.0 0.00 0.00 0.00 49 1014.1
20260831001023 94 217 2.0 7.0 0.00 0.00 0.00 49 1014.1
20260831000520 94 201 1.0 3.0 0.00 0.00 0.00 49 1014.1
20260831000018 94 173 1.0 2.0 0.00 0.00 0.00 49 1014.2
20260830235517 95 226 2.0 4.0 0.00 0.00 0.00 49 1014.2
20260830235012 95 217 1.0 4.0 0.00 0.00 0.00 48 1014.2
20260830234508 96 190 2.0 4.0 0.00 0.00 0.00 46 1014.1
20260830234003 96 209 0.0 3.0 0.00 0.00 0.00 43 1014.2
20260830233458 97 175 2.0 6.0 0.00 0.00 0.00 42 1014.2
20260830232949 98 216 1.0 1.0 0.00 0.00 0.00 42 1014.1
20260830232444 97 184 0.0 1.0 0.00 0.00 0.00 42 1014.1
20260830231940 97 166 6.0 8.0 0.00 0.00 0.00 43 1014.1
20260830231435 97 212 0.0 4.0 0.00 0.00 0.00 43 1014.0
20260830230934 97 204 0.0 1.0 0.00 0.00 0.00 43 1014.1
20260830230430 97 194 1.0 2.0 0.00 0.00 0.00 44 1014.1
20260830225924 97 207 1.0 4.0 0.00 0.00 0.00 44 1014.1
20260830225420 97 223 1.0 6.0 0.00 0.00 0.00 43 1014.3
20260830224919 97 221 2.0 3.0 0.00 0.00 0.00 43 1014.2
20260830224418 97 154 2.0 3.0 0.00 0.00 0.00 43 1014.3
20260830223915 98 195 2.0 3.0 0.00 0.00 0.00 43 1014.4
20260830223412 97 200 2.0 3.0 0.00 0.00 0.00 43 1014.3
20260830222910 97 221 1.0 3.0 0.00 0.00 0.00 44 1014.3
20260830222406 98 240 3.0 6.0 0.00 0.00 0.00 45 1014.3
20260830221901 98 213 1.0 6.0 0.00 0.00 0.00 45 1014.4
20260830221358 98 190 1.0 2.0 0.00 0.00 0.00 45 1014.2
20260830220854 97 223 0.0 3.0 0.00 0.00 0.00 45 1014.4
20260830220353 97 207 0.0 6.0 0.00 0.00 0.00 46 1014.2
20260830215851 96 227 2.0 3.0 0.00 0.00 0.00 45 1014.3
20260830215350 97 223 1.0 3.0 0.00 0.00 0.00 45 1014.5
20260830214845 98 244 1.0 4.0 0.00 0.00 0.00 45 1014.3
20260830214341 99 201 0.0 3.0 0.00 0.00 0.00 44 1014.3
20260830213840 98 247 0.0 2.0 0.00 0.00 0.00 45 1014.5
20260830213336 97 225 0.0 1.0 0.00 0.00 0.00 46 1014.6
20260830212831 98 220 1.0 3.0 0.00 0.00 0.00 46 1014.8
20260830212327 99 230 1.0 3.0 0.00 0.00 0.00 44 1014.7
20260830211825 99 221 0.0 3.0 0.00 0.00 0.00 46 1014.7
20260830211321 99 217 0.0 4.0 0.00 0.00 0.00 46 1015.0
20260830210816 99 255 1.0 3.0 0.00 0.00 0.00 45 1014.8
20260830210315 99 230 2.0 4.0 0.00 0.00 0.00 45 1015.0
20260830205814 98 229 3.0 6.0 0.00 0.00 0.00 46 1015.0
20260830205308 98 71 2.0 3.0 0.00 0.00 0.00 47 1015.2
20260830204804 96 217 3.0 6.0 0.00 0.00 0.00 48 1015.2
20260830204302 96 177 0.0 3.0 0.00 0.00 0.00 48 1015.3
20260830203758 96 229 4.0 4.0 0.00 0.00 0.00 47 1015.3
20260830203254 97 187 1.0 2.0 0.00 0.00 0.00 46 1015.3
20260830202753 96 248 1.0 2.0 0.00 0.00 0.00 48 1015.4
20260830202249 98 217 1.0 3.0 0.00 0.00 0.00 47 1015.6
20260830201748 97 187 2.0 4.0 0.00 0.00 0.00 47 1015.7
20260830201243 96 220 1.0 2.0 0.00 0.00 0.00 49 1015.7
20260830200739 98 216 1.0 4.0 0.00 0.00 0.00 47 1015.8
20260830200238 98 251 2.0 4.0 0.00 0.00 0.00 49 1015.9
20260830195734 97 104 1.0 3.0 0.00 0.00 0.00 47 1015.8
20260830195232 98 213 0.0 7.0 0.00 0.00 0.00 49 1016.2
20260830194731 98 198 2.0 3.0 0.00 0.00 0.00 49 1016.3
20260830194226 99 233 1.0 2.0 0.00 0.00 0.00 48 1016.3
20260830193725 98 227 1.0 3.0 0.00 0.00 0.00 48 1016.4
20260830193220 97 208 1.0 2.0 0.00 0.00 0.00 51 1016.5
20260830192715 96 215 1.0 4.0 0.00 0.00 0.00 49 1016.7
20260830192210 95 165 1.0 4.0 0.00 0.00 0.00 51 1016.7
20260830191707 96 229 2.0 4.0 0.00 0.00 0.00 50 1016.6
20260830191206 97 114 1.0 4.0 0.00 0.00 0.00 50 1016.8
20260830190702 96 242 2.0 6.0 0.00 0.00 0.00 52 1016.9
20260830190157 96 223 4.0 6.0 0.00 0.00 0.00 52 1016.9
20260830185655 95 159 1.0 3.0 0.00 0.00 0.00 53 1016.8
20260830185151 94 354 4.0 6.0 0.00 0.00 0.00 53 1017.0
20260830184650 95 262 3.0 6.0 0.00 0.00 0.00 52 1017.1
20260830184150 96 251 0.0 2.0 0.00 0.00 0.00 52 1017.1
20260830183645 96 215 1.0 3.0 0.00 0.00 0.00 53 1017.1
20260830183141 95 225 2.0 3.0 0.00 0.00 0.00 54 1017.4
20260830182635 96 212 3.0 4.0 0.00 0.00 0.00 53 1017.6
20260830182131 95 213 0.0 4.0 0.00 0.00 0.00 53 1017.5
20260830181627 94 223 0.0 4.0 0.00 0.00 0.00 55 1017.8
20260830181127 95 156 4.0 6.0 0.00 0.00 0.00 54 1017.8
20260830180626 95 216 0.0 3.0 0.00 0.00 0.00 57 1017.7
20260830180126 94 225 2.0 3.0 0.00 0.00 0.00 56 1017.9
20260830175625 94 191 1.0 8.0 0.00 0.00 0.00 57 1017.9
20260830175120 94 223 0.0 1.0 0.00 0.00 0.00 58 1017.8
20260830174616 93 260 0.0 2.0 0.00 0.00 0.00 60 1018.0
20260830174111 93 236 0.0 4.0 0.00 0.00 0.00 61 1018.1
20260830173606 93 228 2.0 3.0 0.00 0.00 0.00 59 1018.4
20260830173101 92 304 3.0 4.0 0.00 0.00 0.00 60 1018.4
20260830172558 93 233 2.0 4.0 0.00 0.00 0.00 60 1018.3
20260830172054 93 261 2.0 3.0 0.00 0.00 0.00 58 1018.4
20260830171549 94 251 2.0 3.0 0.00 0.00 0.00 59 1018.4
20260830171044 93 205 1.0 2.0 0.00 0.00 0.00 59 1018.4
20260830170544 92 189 1.0 4.0 0.00 0.00 0.00 58 1018.4
20260830170043 92 192 0.0 4.0 0.00 0.00 0.00 62 1018.3
20260830165538 92 219 0.0 4.0 0.00 0.00 0.00 64 1018.5
20260830165034 92 225 1.0 4.0 0.00 0.00 0.00 64 1018.5
20260830164530 93 163 3.0 4.0 0.00 0.00 0.00 60 1018.6
20260830164026 91 206 4.0 7.0 0.00 0.00 0.00 62 1018.5
20260830163523 92 263 4.0 4.0 0.00 0.00 0.00 63 1018.5
20260830163022 92 209 0.0 3.0 0.00 0.00 0.00 66 1018.6
20260830162518 91 213 1.0 3.0 0.00 0.00 0.00 67 1018.6
20260830162018 90 272 2.0 4.0 0.00 0.00 0.00 68 1018.5
20260830161513 89 230 2.0 3.0 0.00 0.00 0.00 70 1018.6
20260830161008 88 215 1.0 3.0 0.00 0.00 0.00 73 1018.7
20260830160504 89 233 2.0 3.0 0.00 0.00 0.00 71 1018.7
20260830155958 89 217 0.0 3.0 0.00 0.00 0.00 72 1018.5
20260830155455 89 222 1.0 3.0 0.00 0.00 0.00 72 1018.7
20260830154950 89 225 3.0 4.0 0.00 0.00 0.00 70 1018.5
20260830154445 90 220 1.0 2.0 0.00 0.00 0.00 71 1018.7
20260830153941 89 255 0.0 2.0 0.00 0.00 0.00 72 1018.7
20260830153437 89 217 2.0 2.0 0.00 0.00 0.00 72 1018.8
20260830152936 89 214 0.0 3.0 0.00 0.00 0.00 73 1018.5
20260830152432 89 222 3.0 3.0 0.00 0.00 0.00 71 1018.7
20260830151931 88 225 1.0 2.0 0.00 0.00 0.00 75 1018.3
20260830151431 88 222 1.0 2.0 0.00 0.00 0.00 76 1018.3
20260830150926 88 235 0.0 1.0 0.00 0.00 0.00 76 1018.3
20260830150426 87 247 3.0 6.0 0.00 0.00 0.00 76 1018.6
20260830145920 86 218 0.0 7.0 0.00 0.00 0.00 80 1018.5
20260830145415 86 232 1.0 2.0 0.00 0.00 0.00 80 1018.5
20260830144910 85 209 0.0 2.0 0.00 0.00 0.00 82 1018.6
20260830144407 85 244 2.0 3.0 0.00 0.00 0.00 82 1018.6
20260830143906 85 231 1.0 3.0 0.00 0.00 0.00 82 1018.4
20260830143401 85 231 1.0 2.0 0.00 0.00 0.00 82 1018.5
20260830142900 85 198 1.0 2.0 0.00 0.00 0.00 83 1018.6
20260830142356 85 243 0.0 1.0 0.00 0.00 0.00 84 1018.5
20260830141851 84 224 0.0 1.0 0.00 0.00 0.00 86 1018.7
20260830141346 83 224 2.0 3.0 0.00 0.00 0.00 87 1018.4
20260830140841 83 210 1.0 2.0 0.00 0.00 0.00 88 1018.4
20260830140336 83 208 0.0 2.0 0.00 0.00 0.00 88 1018.4
20260830135830 82 214 0.0 1.0 0.00 0.00 0.00 89 1018.3
20260830135326 82 215 0.0 0.0 0.00 0.00 0.00 90 1018.6
20260830134821 81 205 1.0 2.0 0.00 0.00 0.00 92 1018.5
20260830134321 80 89 0.0 0.0 0.00 0.00 0.00 95 1018.4